Location: Port Huron, MI 48060, USA
(42.9794°N, 82.4282°W)
Time: 14:24:20
(UTC-04:00)

ISS - Visible Passes

Search period start: 21 March 2019 00:00
Search period end: 31 March 2019 00:00
Orbit: 406 x 411 km, 51.6° (Epoch: 21 March)

Date Brightness Start Highest point End Pass type
(mag) Time Alt. Az. Time Alt. Az. Time Alt. Az.
21 Mar -3.1 21:37:33 10° WSW 21:40:02 48° WSW 21:40:02 48° WSW visible
22 Mar -3.7 20:46:36 10° SW 20:49:48 52° SE 20:51:49 20° ENE visible
22 Mar -0.8 22:23:34 10° W 22:24:36 17° WNW 22:24:36 17° WNW visible
23 Mar -2.7 21:32:09 10° W 21:35:17 41° NNW 21:36:09 33° NNE visible
24 Mar -3.5 20:40:51 10° WSW 20:44:08 66° NNW 20:47:25 10° NE visible
24 Mar -1.1 22:18:33 10° WNW 22:20:17 19° NW 22:20:17 19° NW visible
25 Mar -1.8 21:27:00 10° WNW 21:29:49 25° NNW 21:31:30 17° NNE visible
26 Mar -2.3 20:35:29 10° W 20:38:33 34° NNW 20:41:37 10° NE visible
26 Mar -1.2 22:13:26 10° NW 22:15:21 18° NNW 22:15:21 18° NNW visible
27 Mar -1.5 21:21:55 10° WNW 21:24:25 19° N 21:26:22 13° NNE visible
28 Mar -1.7 20:30:20 10° WNW 20:33:02 23° NNW 20:35:45 10° NE visible
28 Mar -1.3 22:08:00 10° NW 22:10:02 18° N 22:10:02 18° N visible
29 Mar -1.4 21:16:39 10° NW 21:19:00 18° N 21:20:55 12° NE visible
29 Mar -0.3 22:53:22 10° NW 22:53:39 12° NW 22:53:39 12° NW visible
30 Mar -1.5 20:25:09 10° NW 20:27:34 19° N 20:29:59 10° NE visible
30 Mar -1.7 22:02:15 10° NW 22:04:30 22° N 22:04:30 22° N visible
